Location: Unspecified
(41.1637°N, 24.2901°E)
Time: 11:15:52
(UTC+02:00)

ISS - Pass Details

Date: 06 May 2026
Orbit: 414 x 424 km, 51.6° (Epoch: 12 May)

Event Time Altitude Azimuth Distance (km) Brightness Sun altitude
Exits shadow 00:59:24 11° 27° (NNE) 1,458 -0.2 -31.6°
Drops below altitude 10° 00:59:31 10° 28° (NNE) 1,482 -0.2 -31.6°
Sets 01:02:27 0° 56° (NE) 2,364 0.7 -31.5°
